TimeCST,TemperatureF,Dew PointF,Humidity,Sea Level PressureIn,VisibilityMPH,Wind Direction,Wind SpeedMPH,Gust SpeedMPH,PrecipitationIn,Events,Conditions,WindDirDegrees,DateUTC
12:53 AM,-0.9,-13.0,57,30.68,10.0,NW,10.4,-,N/A,,Clear,310,2014-01-06 06:53:00
1:53 AM,-2.0,-11.9,63,30.66,10.0,WNW,11.5,-,N/A,,Clear,300,2014-01-06 07:53:00
2:53 AM,-2.9,-11.9,65,30.67,10.0,WNW,12.7,-,N/A,,Clear,290,2014-01-06 08:53:00
3:53 AM,-2.9,-13.0,62,30.65,10.0,WNW,10.4,-,N/A,,Clear,300,2014-01-06 09:53:00
4:53 AM,-5.1,-13.0,69,30.65,10.0,WNW,8.1,-,N/A,,Clear,290,2014-01-06 10:53:00
5:53 AM,-6.0,-13.0,72,30.65,10.0,WNW,8.1,-,N/A,,Clear,300,2014-01-06 11:53:00
6:53 AM,-8.0,-13.0,79,30.66,10.0,West,5.8,-,N/A,,Clear,270,2014-01-06 12:53:00
7:53 AM,-7.1,-13.0,75,30.66,10.0,West,5.8,-,N/A,,Clear,270,2014-01-06 13:53:00
8:53 AM,-2.9,-11.0,68,30.67,10.0,West,9.2,-,N/A,,Clear,270,2014-01-06 14:53:00
9:53 AM,3.9,-9.9,53,30.67,10.0,NW,13.8,-,N/A,,Clear,310,2014-01-06 15:53:00
10:53 AM,7.0,-8.0,51,30.65,10.0,NW,8.1,-,N/A,,Clear,320,2014-01-06 16:53:00
11:53 AM,10.9,-8.0,42,30.62,10.0,NW,11.5,-,N/A,,Clear,310,2014-01-06 17:53:00
12:53 PM,14.0,-5.1,43,30.57,10.0,WNW,9.2,-,N/A,,Clear,290,2014-01-06 18:53:00
1:53 PM,16.0,-4.0,41,30.53,10.0,WNW,11.5,-,N/A,,Clear,300,2014-01-06 19:53:00
2:53 PM,18.0,-4.0,38,30.51,10.0,WNW,9.2,-,N/A,,Clear,290,2014-01-06 20:53:00
3:53 PM,19.0,-2.9,38,30.51,10.0,West,11.5,-,N/A,,Clear,280,2014-01-06 21:53:00
4:53 PM,18.0,-2.0,41,30.49,10.0,West,8.1,-,N/A,,Clear,280,2014-01-06 22:53:00
5:53 PM,12.9,-0.9,54,30.49,10.0,West,3.5,-,N/A,,Clear,260,2014-01-06 23:53:00
6:53 PM,15.1,-2.0,47,30.49,10.0,Calm,Calm,-,N/A,,Clear,0,2014-01-07 00:53:00
7:53 PM,10.0,-2.0,58,30.48,10.0,South,8.1,-,N/A,,Clear,180,2014-01-07 01:53:00
8:53 PM,8.1,-0.9,67,30.45,10.0,South,6.9,-,N/A,,Clear,190,2014-01-07 02:53:00
9:53 PM,7.0,-0.9,70,30.42,10.0,South,8.1,-,N/A,,Clear,190,2014-01-07 03:53:00
10:53 PM,10.0,1.9,70,30.38,10.0,South,11.5,-,N/A,,Clear,190,2014-01-07 04:53:00
11:53 PM,10.9,5.0,77,30.33,10.0,South,13.8,-,N/A,,Partly Cloudy,190,2014-01-07 05:53:00